User: anonymous   Login
Location: St Paul
(33.9360°N, 83.4200°W)
Time: 05:08:21
(UTC-04:00)
Language:

METEOR-M - Orbit

View from above orbital plane
View from above orbital plane
View from above satellite
View from above satellite

Ground track
Ground track

The orbit data is extracted from the following two-line orbital elements,

1 35865U 09049A   19109.02384632  .00000021  00000-0  28146-4 0  9995
2 35865  98.4119 109.9536 0002515  21.1048 339.0234 14.22191606497458
Epoch (UTC): 19 April 2019 00:34:20
Eccentricity: 0.0002515
inclination: 98.4119°
perigee height: 816 km
apogee height: 820 km
right ascension of ascending node: 109.9536°
argument of perigee: 21.1048°
revolutions per day: 14.22191606
mean anomaly at epoch: 339.0234°
orbit number at epoch: 49745

The dashed part of the orbit path shows where the satellite is in the earth's shadow,  

DLR